EW0954 Weather Reports


Display with metric or nautical units.
time (UTC)temp
F
wind
direction
speed
MPH
gust
MPH
rain 1hr
in
rain 24hr
in
rain mn
in
humidity
%
barometer
mb
20260506025036 54 135 1.0 4.0 0.04 0.97 0.11 96 1005.7
20260506024016 54 135 1.0 2.0 0.03 0.96 0.10 96 1005.8
20260506023016 54 135 2.0 3.0 0.03 0.95 0.09 96 1005.9
20260506022016 54 0.0 0.0 0.02 0.94 0.09 96 1006.0
20260506021016 54 135 1.0 2.0 0.02 0.94 0.09 96 1006.1
20260506020057 54 135 1.0 3.0 0.02 0.94 0.08 96 1006.2
20260506015016 54 0.0 0.0 0.01 0.93 0.07 96 1006.3
20260506014016 54 135 1.0 2.0 0.01 0.93 0.07 96 1006.4
20260506013016 54 135 1.0 2.0 0.00 0.92 0.06 96 1006.4
20260506012015 54 135 1.0 2.0 0.00 0.92 0.06 96 1006.4
20260506011017 54 0.0 1.0 0.00 0.92 0.06 96 1006.4
20260506010016 54 0.0 1.0 0.00 0.92 0.06 96 1006.6
20260506005035 54 0.0 2.0 0.01 0.92 0.06 96 1006.6
20260506004016 54 135 1.0 2.0 0.01 0.92 0.06 96 1006.7
20260506003016 54 135 1.0 2.0 0.01 0.92 0.06 96 1006.8
20260506002015 54 135 1.0 2.0 0.01 0.92 0.06 95 1006.8
20260506001015 54 135 1.0 3.0 0.01 0.92 0.06 95 1006.8
20260506000017 54 113 1.0 2.0 0.02 0.92 0.06 95 1007.0
20260505235017 54 0.0 1.0 0.01 0.91 0.06 95 1007.0
20260505234017 54 68 1.0 2.0 0.02 0.91 0.06 95 1007.1
20260505233037 54 68 1.0 2.0 0.02 0.91 0.06 95 1007.3
20260505232015 54 0.0 0.0 0.03 0.91 0.06 95 1007.3
20260505231017 54 0.0 1.0 0.04 0.91 0.06 95 1007.1
20260505230017 54 68 1.0 2.0 0.05 0.91 0.05 95 1007.2
20260505225017 54 0.0 1.0 0.06 0.91 0.05 95 1007.3
20260505224017 54 0.0 1.0 0.07 0.90 0.04 95 1007.4
20260505223037 54 0.0 1.0 0.08 0.90 0.04 95 1007.4
20260505222037 54 68 1.0 2.0 0.08 0.88 0.02 95 1007.5
20260505221017 54 23 1.0 3.0 0.09 0.87 0.02 94 1007.6
20260505220017 54 0.0 1.0 0.09 0.86 0.86 95 1007.6
20260505215016 54 0.0 1.0 0.10 0.84 0.84 95 1007.6
20260505214016 54 0.0 1.0 0.12 0.83 0.83 94 1007.8
20260505213036 54 0.0 1.0 0.14 0.82 0.82 94 1007.8
20260505212016 55 23 1.0 3.0 0.17 0.80 0.80 94 1007.8
20260505211036 54 0.0 0.0 0.19 0.79 0.79 94 1007.9
20260505210036 55 0.0 0.0 0.19 0.76 0.76 94 1008.0
20260505205016 55 0.0 2.0 0.17 0.74 0.74 94 1008.0
20260505204016 55 315 1.0 2.0 0.17 0.71 0.71 94 1007.9
20260505203016 55 315 1.0 2.0 0.18 0.68 0.68 93 1007.9
20260505202016 55 315 1.0 3.0 0.20 0.64 0.64 93 1008.0
20260505201016 55 315 2.0 4.0 0.28 0.60 0.60 93 1007.9
20260505200016 55 0.0 2.0 0.34 0.57 0.57 93 1008.0
20260505195016 55 315 4.0 7.0 0.41 0.57 0.57 93 1007.8
20260505194036 56 338 3.0 8.0 0.43 0.54 0.54 92 1007.6
20260505193016 56 270 3.0 8.0 0.43 0.50 0.50 91 1007.5
20260505192016 56 270 7.0 15.0 0.42 0.44 0.44 91 1007.4
20260505191016 57 203 3.0 8.0 0.31 0.31 0.31 92 1007.7
20260505190016 57 293 2.0 4.0 0.24 0.24 0.24 91 1007.4
20260505185016 58 0.0 0.0 0.16 0.16 0.16 91 1007.5
20260505184016 58 293 2.0 3.0 0.10 0.10 0.10 91 1007.3
20260505183035 58 293 2.0 3.0 0.06 0.06 0.06 90 1007.1
20260505182016 58 293 2.0 3.0 0.02 0.02 0.02 88 1007.1
20260505181036 59 270 2.0 3.0 0.00 0.00 0.00 87 1007.1
20260505180036 59 270 4.0 7.0 0.00 0.00 0.00 87 1007.0
20260505175036 59 293 3.0 7.0 0.00 0.00 0.00 85 1006.8
20260505174016 59 338 1.0 3.0 0.00 0.00 0.00 85 1006.8
20260505173017 59 0 1.0 3.0 0.00 0.00 0.00 84 1006.9
20260505172015 59 45 1.0 2.0 0.00 0.00 0.00 84 1006.9
20260505171015 59 113 2.0 4.0 0.00 0.00 0.00 84 1006.9
20260505170015 60 90 2.0 4.0 0.00 0.00 0.00 84 1006.9
20260505165016 60 45 2.0 4.0 0.00 0.00 0.00 83 1006.8
20260505164035 60 45 3.0 8.0 0.00 0.00 0.00 83 1006.9
20260505163015 60 23 3.0 7.0 0.00 0.00 0.00 83 1007.0
20260505162017 61 90 3.0 7.0 0.00 0.00 0.00 82 1007.2
20260505161018 61 90 3.0 5.0 0.00 0.00 0.00 81 1007.2
20260505153038 63 45 4.0 11.0 0.00 0.00 0.00 77 1007.4
20260505152016 63 68 4.0 9.0 0.00 0.00 0.00 77 1007.5
20260505151017 63 45 4.0 7.0 0.00 0.00 0.00 76 1007.6
20260505125017 66 293 9.0 14.0 0.00 0.00 0.00 75 1008.3
20260505124037 70 270 7.0 13.0 0.00 0.00 0.00 67 1008.5
20260505123017 70 23 2.0 5.0 0.00 0.00 0.00 62 1008.7
20260505122017 70 23 2.0 6.0 0.00 0.00 0.00 61 1008.6
20260505121037 70 45 3.0 5.0 0.00 0.00 0.00 65 1008.6
20260505120017 70 68 3.0 7.0 0.00 0.00 0.00 65 1008.7
20260505115017 70 113 3.0 8.0 0.00 0.00 0.00 62 1008.8
20260505114037 70 203 3.0 9.0 0.00 0.00 0.00 67 1008.9
20260505113017 69 113 3.0 10.0 0.00 0.00 0.00 69 1009.0
20260505112017 70 68 5.0 10.0 0.00 0.00 0.00 71 1009.2
20260505111018 69 113 3.0 7.0 0.00 0.00 0.00 71 1009.1
20260505102017 66 225 3.0 9.0 0.00 0.00 0.00 77 1009.5
20260505101017 65 203 3.0 7.0 0.00 0.00 0.00 77 1009.6
20260505100017 65 135 2.0 5.0 0.00 0.00 0.00 77 1009.6
20260505095017 65 135 2.0 7.0 0.00 0.00 0.00 78 1009.7
20260505094036 65 180 2.0 4.0 0.00 0.00 0.00 78 1009.7
20260505093016 64 248 1.0 2.0 0.00 0.00 0.00 78 1009.8
20260505092017 64 248 2.0 4.0 0.00 0.00 0.00 79 1009.8
20260505091036 64 225 2.0 5.0 0.00 0.00 0.00 80 1009.9
20260505090016 63 248 2.0 3.0 0.00 0.00 0.00 80 1010.0
20260505085036 63 270 2.0 3.0 0.00 0.00 0.00 80 1010.1
20260505084016 63 203 2.0 3.0 0.00 0.00 0.00 80 1010.2
20260505083017 62 270 2.0 4.0 0.00 0.00 0.00 81 1010.4
20260505082017 62 225 2.0 4.0 0.00 0.00 0.00 81 1010.3
20260505081017 62 225 2.0 4.0 0.00 0.00 0.00 81 1010.4
20260505080017 61 225 2.0 4.0 0.00 0.00 0.00 83 1010.4
20260505075016 60 293 2.0 5.0 0.00 0.00 0.00 85 1010.4
20260505074016 59 293 1.0 3.0 0.00 0.00 0.00 86 1010.4
20260505073016 59 248 2.0 3.0 0.00 0.00 0.00 87 1010.4
20260505072016 58 0.0 2.0 0.00 0.00 0.00 87 1010.4
20260505071016 58 135 1.0 2.0 0.00 0.00 0.00 88 1010.4
20260505070017 57 270 1.0 3.0 0.00 0.00 0.00 89 1010.4
20260505065016 56 293 2.0 4.0 0.00 0.00 0.00 90 1010.4
20260505064016 56 293 3.0 4.0 0.00 0.00 0.00 90 1010.5
20260505063036 56 293 2.0 4.0 0.00 0.00 0.00 90 1010.6
20260505062016 55 293 3.0 5.0 0.00 0.00 0.00 90 1010.8
20260505061036 55 315 4.0 7.0 0.00 0.00 0.00 91 1010.8
20260505060016 55 315 3.0 5.0 0.00 0.00 0.00 91 1010.9
20260505055017 55 293 3.0 7.0 0.00 0.00 0.00 91 1010.9
20260505054016 55 293 2.0 3.0 0.00 0.00 0.00 91 1010.8
20260505053016 55 293 2.0 4.0 0.00 0.00 0.00 91 1011.0
20260505052016 54 0.0 1.0 0.00 0.00 0.00 91 1011.0
20260505051016 54 0.0 0.0 0.00 0.00 0.00 91 1010.9
20260505041016 54 0.0 0.0 0.00 0.00 0.00 91 1011.2
20260505040015 54 0.0 1.0 0.00 0.00 0.00 91 1011.3
20260505035116 54 293 1.0 3.0 0.00 0.00 0.00 91 1011.4
20260505034016 54 293 2.0 3.0 0.00 0.00 0.00 92 1011.4
20260505033016 54 293 1.0 3.0 0.00 0.00 0.00 92 1011.5
20260505032036 54 0.0 0.0 0.00 0.00 0.00 92 1011.6
20260505031015 54 0.0 0.0 0.00 0.00 0.00 92 1011.7
20260505030035 54 0.0 0.0 0.00 0.00 0.00 91 1011.7